Hovedside
METAR-TAF:

METAR-TAF

Lufthavner :

Honningsvåg, Norge

Honningsvåg lufthavn

breddegrad: 71-01N, lengdegrad: 025-59E, høyde over havet: 1 m

Gjeldene værobservasjon

Denne rapporten ble laget for 1 time og 16 minutter siden, klokken 09:50 UTC
Vind 9 kt fra Nordøst
Temperatur 4°C
Luftfuktighet 56%
Trykk 1012 hPa
Sikt 10 km eller mer
Spredte skyer i en høyde av 4600 ft

METAR: ENHV 270950Z 05009KT 9999 SCT046 04/M04 Q1012

Tid: 13:06 (11:06 UTC)


TAF: fraværende

Værobservasjoner og værvarsel for over 4000 flyplasser (METAR- og TAF-rapporter).

Tilgjengelige stasjoner er representert av de røde og gule prikkene på kartet.

Hold musepekeren over prikken for å se navnet på stasjonen.

Klikk så for å se værobservasjoner og -varsler.

For å forandre kartet kan du klikke på den grønne knappen med svart kryss for å zoome inn, på den grønne knappen med strek for å zoome ut, eller på de grønne pilene for å se tilstøtende kart.


METAR-TAF: